Location: Hackberry
(29.5783°N, 96.8797°W)
Time: 13:22:07
(UTC+00:00)

Transit 2A - Pass Details

Date: 16 November 2024
Orbit: 592 x 956 km, 66.7° (Epoch: 02 December)

Event Time Altitude Azimuth Distance (km) Brightness Sun altitude
Exits shadow 10:23:50 10° 6° (N) 2,655 8.8 -32.4°
Drops below altitude 10° 10:23:54 10° 7° (N) 2,676 8.8 -32.3°
Sets 10:26:39 0° 15° (NNE) 3,603 9.6 -31.8°
